When you browse on this site, cookies collect data to enhance your experience and personalize the content and advertising you see.
Visit our Privacy Policy to learn more. By continuing to use the site, you agree to this use of cookies and data.

Hourly Weather Nazaret

Today, 15 July, Wednesday

Time Temperature Precipitation Wind Pressure Humidity
00:00 +22°C° 0 mm 1 mps 724 mmHg 84%
01:00 +22°C° 0 mm 1 mps 724 mmHg 84%
02:00 +22°C° 0 mm 1 mps 724 mmHg 83%
03:00 +22°C° 0 mm 1 mps 724 mmHg 84%
04:00 +22°C° 0 mm 1 mps 724 mmHg 85%
05:00 +21°C° 0 mm 1 mps 724 mmHg 85%
06:00 +24°C° 0 mm 1 mps 725 mmHg 75%
07:00 +27°C° 0 mm 1 mps 725 mmHg 64%
08:00 +29°C° 0 mm 2 mps 726 mmHg 54%
09:00 +31°C° 0 mm 2 mps 726 mmHg 48%
10:00 +34°C° 0 mm 3 mps 726 mmHg 42%
11:00 +36°C° 0 mm 3 mps 726 mmHg 37%
12:00 +36°C° 0 mm 5 mps 726 mmHg 37%
13:00 +36°C° 0 mm 6 mps 726 mmHg 38%
14:00 +36°C° 0 mm 7 mps 725 mmHg 38%
15:00 +35°C° 0 mm 6 mps 725 mmHg 43%
16:00 +33°C° 0 mm 6 mps 725 mmHg 47%
17:00 +32°C° 0 mm 5 mps 725 mmHg 52%
18:00 +29°C° 0 mm 4 mps 725 mmHg 63%
19:00 +27°C° 0 mm 3 mps 725 mmHg 75%
20:00 +24°C° 0 mm 3 mps 725 mmHg 86%
21:00 +24°C° 0 mm 2 mps 724 mmHg 87%
22:00 +24°C° 0 mm 2 mps 724 mmHg 88%
23:00 +23°C° 0 mm 2 mps 724 mmHg 88%

Tomorrow, 16 July, Thursday

Time Temperature Precipitation Wind Pressure Humidity
00:00 +23°C° 0 mm 2 mps 724 mmHg 88%
01:00 +23°C° 0 mm 2 mps 724 mmHg 88%
02:00 +21°C° 0 mm 2 mps 723 mmHg 88%
03:00 +22°C° 0 mm 1 mps 723 mmHg 88%
04:00 +22°C° 0 mm 1 mps 724 mmHg 89%
05:00 +22°C° 0 mm 1 mps 724 mmHg 90%
06:00 +24°C° 0 mm 2 mps 724 mmHg 79%
07:00 +27°C° 0 mm 2 mps 724 mmHg 69%
08:00 +29°C° 0 mm 3 mps 725 mmHg 58%
09:00 +30°C° 0 mm 3 mps 725 mmHg 52%
10:00 +33°C° 0 mm 4 mps 724 mmHg 47%
11:00 +35°C° 0 mm 5 mps 724 mmHg 41%
12:00 +34°C° 0 mm 5 mps 724 mmHg 41%
13:00 +34°C° 0 mm 6 mps 724 mmHg 42%
14:00 +34°C° 0 mm 7 mps 723 mmHg 42%
15:00 +33°C° 0 mm 6 mps 723 mmHg 46%
16:00 +32°C° 0 mm 6 mps 723 mmHg 50%
17:00 +30°C° 0 mm 5 mps 722 mmHg 54%
18:00 +27°C° 0 mm 4 mps 722 mmHg 63%
19:00 +25°C° 0 mm 3 mps 722 mmHg 73%
20:00 +23°C° 0 mm 2 mps 722 mmHg 83%
21:00 +23°C° 0 mm 2 mps 722 mmHg 84%
22:00 +21°C° 0 mm 2 mps 722 mmHg 85%
23:00 +22°C° 0 mm 1 mps 722 mmHg 86%

Day after tomorrow, 17 July, Friday

Time Temperature Precipitation Wind Pressure Humidity
00:00 +21°C° 0 mm 1 mps 722 mmHg 87%
01:00 +21°C° 0 mm 1 mps 722 mmHg 88%
02:00 +21°C° 0 mm 1 mps 721 mmHg 89%
03:00 +21°C° 0 mm 1 mps 722 mmHg 89%
04:00 +20°C° 0 mm 1 mps 722 mmHg 89%
05:00 +20°C° 0 mm 1 mps 722 mmHg 90%
06:00 +23°C° 0 mm 2 mps 722 mmHg 79%
07:00 +25°C° 0 mm 2 mps 722 mmHg 68%
08:00 +27°C° 0 mm 2 mps 723 mmHg 57%
09:00 +29°C° 0 mm 3 mps 723 mmHg 50%
10:00 +31°C° 0 mm 3 mps 723 mmHg 42%
11:00 +34°C° 0 mm 3 mps 723 mmHg 35%
12:00 +34°C° 0 mm 4 mps 723 mmHg 35%
13:00 +34°C° 0 mm 5 mps 722 mmHg 35%
14:00 +34°C° 0 mm 6 mps 722 mmHg 36%
15:00 +33°C° 0 mm 6 mps 722 mmHg 40%
16:00 +32°C° 0 mm 5 mps 722 mmHg 44%
17:00 +29°C° 0 mm 5 mps 722 mmHg 48%
18:00 +27°C° 0 mm 4 mps 722 mmHg 58%
19:00 +25°C° 0 mm 3 mps 722 mmHg 67%
20:00 +23°C° 0 mm 2 mps 722 mmHg 76%
21:00 +23°C° 0 mm 2 mps 722 mmHg 78%
22:00 +22°C° 0 mm 1 mps 722 mmHg 80%
23:00 +21°C° 0 mm 1 mps 722 mmHg 82%

18 July, Saturday

Time Temperature Precipitation Wind Pressure Humidity
00:00 +21°C° 0 mm 1 mps 722 mmHg 84%
01:00 +21°C° 0 mm 1 mps 722 mmHg 86%
02:00 +21°C° 0 mm 1 mps 722 mmHg 87%
03:00 +21°C° 0 mm 1 mps 722 mmHg 87%
04:00 +20°C° 0 mm 1 mps 722 mmHg 88%
05:00 +20°C° 0 mm 1 mps 723 mmHg 88%
06:00 +23°C° 0 mm 1 mps 723 mmHg 79%
07:00 +25°C° 0 mm 1 mps 723 mmHg 69%
08:00 +27°C° 0 mm 2 mps 724 mmHg 60%
09:00 +29°C° 0 mm 2 mps 724 mmHg 53%
10:00 +31°C° 0 mm 3 mps 724 mmHg 45%
11:00 +35°C° 0 mm 3 mps 724 mmHg 38%
12:00 +35°C° 0 mm 4 mps 724 mmHg 39%
13:00 +35°C° 0 mm 5 mps 724 mmHg 41%
14:00 +35°C° 0 mm 6 mps 723 mmHg 42%
15:00 +34°C° 0 mm 6 mps 723 mmHg 44%
16:00 +33°C° 0 mm 5 mps 723 mmHg 45%
17:00 +32°C° 0 mm 5 mps 723 mmHg 47%
18:00 +29°C° 0 mm 4 mps 723 mmHg 57%
19:00 +26°C° 0 mm 3 mps 723 mmHg 66%
20:00 +24°C° 0 mm 3 mps 723 mmHg 76%
21:00 +23°C° 0 mm 2 mps 723 mmHg 78%
22:00 +23°C° 0 mm 2 mps 723 mmHg 80%
23:00 +23°C° 0 mm 2 mps 723 mmHg 83%

19 July, Sunday

Time Temperature Precipitation Wind Pressure Humidity
00:00 +21°C° 0 mm 2 mps 723 mmHg 84%
01:00 +22°C° 0 mm 1 mps 723 mmHg 85%
02:00 +22°C° 0 mm 1 mps 724 mmHg 86%
03:00 +22°C° 0 mm 1 mps 724 mmHg 86%
04:00 +21°C° 0 mm 1 mps 724 mmHg 87%
05:00 +21°C° 0 mm 1 mps 724 mmHg 87%
06:00 +24°C° 0 mm 1 mps 724 mmHg 76%
07:00 +26°C° 0 mm 1 mps 725 mmHg 65%
08:00 +29°C° 0 mm 2 mps 725 mmHg 54%
09:00 +31°C° 0 mm 2 mps 725 mmHg 48%
10:00 +34°C° 0 mm 3 mps 725 mmHg 42%
11:00 +35°C° 0 mm 4 mps 725 mmHg 37%
12:00 +35°C° 0 mm 5 mps 725 mmHg 37%
13:00 +35°C° 0 mm 6 mps 725 mmHg 38%
14:00 +35°C° 0 mm 6 mps 724 mmHg 38%
15:00 +34°C° 0 mm 6 mps 724 mmHg 40%
16:00 +34°C° 0 mm 5 mps 724 mmHg 42%
17:00 +33°C° 0 mm 5 mps 724 mmHg 44%
18:00 +29°C° 0 mm 4 mps 724 mmHg 53%
19:00 +27°C° 0 mm 3 mps 724 mmHg 62%
20:00 +25°C° 0 mm 3 mps 724 mmHg 71%
21:00 +24°C° 0 mm 2 mps 724 mmHg 74%
22:00 +24°C° 0 mm 2 mps 724 mmHg 77%
23:00 +23°C° 0 mm 2 mps 723 mmHg 80%

20 July, Monday

Time Temperature Precipitation Wind Pressure Humidity
00:00 +23°C° 0 mm 2 mps 723 mmHg 82%
01:00 +23°C° 0 mm 2 mps 723 mmHg 84%
02:00 +22°C° 0 mm 1 mps 723 mmHg 87%
03:00 +22°C° 0 mm 1 mps 723 mmHg 87%
04:00 +22°C° 0 mm 1 mps 723 mmHg 87%
05:00 +22°C° 0 mm 1 mps 724 mmHg 88%
06:00 +24°C° 0 mm 1 mps 724 mmHg 77%
07:00 +26°C° 0 mm 1 mps 724 mmHg 66%
08:00 +29°C° 0 mm 2 mps 724 mmHg 55%
09:00 +31°C° 0 mm 2 mps 724 mmHg 49%
10:00 +34°C° 0 mm 3 mps 724 mmHg 43%
11:00 +36°C° 0 mm 4 mps 724 mmHg 37%
12:00 +35°C° 0 mm 5 mps 724 mmHg 38%
13:00 +35°C° 0 mm 6 mps 724 mmHg 38%
14:00 +35°C° 0 mm 7 mps 723 mmHg 39%
15:00 +34°C° 0 mm 7 mps 723 mmHg 43%
16:00 +33°C° 0 mm 6 mps 723 mmHg 47%
17:00 +30°C° 0 mm 6 mps 722 mmHg 50%
18:00 +28°C° 0 mm 5 mps 722 mmHg 61%
19:00 +26°C° 0 mm 4 mps 723 mmHg 71%
20:00 +24°C° 0 mm 3 mps 723 mmHg 81%
21:00 +24°C° 0 mm 2 mps 722 mmHg 83%
22:00 +23°C° 0 mm 2 mps 722 mmHg 85%
23:00 +23°C° 0 mm 2 mps 722 mmHg 87%
Show more